Flag for U.S.A. Weather past 2 weeks in Wright, Florida, U.S.A.

Now
88 °F

Sunny.


Feels Like: 97 °F
Forecast: 79 / 89 °F
Wind: 12 mph from South

Location: Hurlburt Field

Current Time: Jul 4, 2015 at 4:15:11 PM

Latest Report: Jul 4, 2015 at 3:58 PM


Visibility: 10 mi

Pressure: 30.03 "Hg

Humidity: 66%

Dew point: 75 °F

Location of WrightLocation

Historic Weather in Wright — Graph

°F

Wright temperature yesterday

Maximum temperature yesterday: 89 °F (at 11:58 AM)
Minimum temperature yesterday: 80 °F (at 12:58 AM)
Average temperature yesterday: 84 °F

Past Weeks' High & Low Weather Summary

 TemperatureHumidityPressure
High93 °F (Jun 21, 10:59 AM)94% (Jun 23, 2:03 AM)30.17 "Hg (Jun 23, 2:03 AM)
Low72 °F (Jun 29, 4:58 AM)48% (Jun 21, 10:58 AM)29.91 "Hg (Jun 28, 2:58 AM)
Average83 °F73%30.05 "Hg
* Reported Jun 19 2:49 PM — Jul 4 2:58 PM, Wright, Weather by CustomWeather, © 2015

Note: Actual official high and low records may vary slightly from our data, if they occured in-between our weather recording intervals... More about our weather records

Advertising

Wright weather history for previous 24 hours

 ConditionsComfort  
Time TempWeatherWind HumidityBarometerVisibility
2:58 PM
Sat, Jul 4
88 °FSunny.12 mph65%30.03 "Hg10 mi
1:58 PM88 °FScattered clouds.9 mph64%30.04 "Hg10 mi
12:58 PM89 °FBroken clouds.12 mph62%30.06 "Hg10 mi
11:58 AM87 °FPassing clouds.9 mph68%30.09 "Hg10 mi
10:58 AM85 °FScattered clouds.9 mph72%30.09 "Hg10 mi
9:58 AM88 °FPassing clouds.9 mph62%30.09 "Hg10 mi
8:58 AM84 °FThundershowers. Scattered clouds.7 mph73%30.09 "Hg10 mi
7:58 AM85 °FSunny.8 mph70%30.07 "Hg10 mi
6:58 AM83 °FSunny.7 mph76%30.06 "Hg10 mi
5:58 AM82 °FSunny.8 mph78%30.04 "Hg10 mi
4:58 AM82 °FClear.7 mph81%30.02 "Hg10 mi
3:58 AM82 °FClear.8 mph79%30.02 "Hg10 mi
2:58 AM82 °FClear.9 mph81%30.02 "Hg10 mi
1:58 AM82 °FPassing clouds.7 mph82%30.03 "Hg10 mi
12:58 AM82 °FPassing clouds.7 mph83%30.04 "Hg10 mi
11:58 PM
Fri, Jul 3
82 °FPassing clouds.6 mph83%30.04 "Hg10 mi
10:58 PM82 °FClear.7 mph81%30.05 "Hg10 mi
9:58 PM82 °FClear.8 mph82%30.03 "Hg10 mi
8:58 PM82 °FClear.7 mph81%30.02 "Hg10 mi
7:58 PM83 °FClear.7 mph79%30.01 "Hg10 mi
6:58 PM83 °FSunny.7 mph78%30.00 "Hg10 mi
5:58 PM85 °FSunny.9 mph73%30.01 "Hg10 mi
4:58 PM87 °FSunny.12 mph69%30.02 "Hg10 mi
Weather by CustomWeather, © 2015

See weather overviewHow to use our weather pages